TimeEDT,TemperatureF,Dew PointF,Humidity,Sea Level PressureIn,VisibilityMPH,Wind Direction,Wind SpeedMPH,Gust SpeedMPH,PrecipitationIn,Events,Conditions,WindDirDegrees,DateUTC
12:17 AM,60.8,60.8,100,30.10,7.0,Calm,Calm,-,N/A,,Clear,0,2013-09-20 04:17:00
12:35 AM,60.8,60.8,100,30.11,1.5,Calm,Calm,-,N/A,,Mist,0,2013-09-20 04:35:00
12:55 AM,57.2,57.2,100,30.11,1.2,Calm,Calm,-,N/A,,Mist,0,2013-09-20 04:55:00
1:15 AM,57.2,57.2,100,30.11,1.0,Calm,Calm,-,N/A,,Mist,0,2013-09-20 05:15:00
1:35 AM,57.2,57.2,100,-9999,0.5,Calm,Calm,-,N/A,Fog,Fog,0,2013-09-20 05:35:00
1:57 AM,57.2,57.2,100,30.11,0.8,Calm,Calm,-,N/A,,Mostly Cloudy,0,2013-09-20 05:57:00
2:15 AM,57.2,-9999,N/A,30.11,0.2,Calm,Calm,-,N/A,Fog,Fog,0,2013-09-20 06:15:00
2:35 AM,57.2,57.2,100,30.11,1.5,Calm,Calm,-,N/A,,Mostly Cloudy,0,2013-09-20 06:35:00
2:58 AM,57.2,57.2,100,30.10,0.8,Calm,Calm,-,N/A,,Mostly Cloudy,0,2013-09-20 06:58:00
3:17 AM,55.4,55.4,100,30.10,1.2,Calm,Calm,-,N/A,,Mostly Cloudy,0,2013-09-20 07:17:00
3:35 AM,57.2,57.2,100,30.10,0.5,Calm,Calm,-,N/A,Fog,Fog,0,2013-09-20 07:35:00
3:57 AM,55.4,55.4,100,30.10,2.0,Calm,Calm,-,N/A,,Mostly Cloudy,0,2013-09-20 07:57:00
4:15 AM,55.4,55.4,100,30.10,0.8,Calm,Calm,-,N/A,,Mostly Cloudy,0,2013-09-20 08:15:00
4:35 AM,55.4,55.4,100,30.10,0.2,Calm,Calm,-,N/A,Fog,Fog,0,2013-09-20 08:35:00
4:56 AM,55.4,55.4,100,30.10,0.5,Calm,Calm,-,N/A,Fog,Fog,0,2013-09-20 08:56:00
5:15 AM,-9999,-9999,N/A,30.09,0.5,Calm,Calm,-,N/A,Fog,Fog,0,2013-09-20 09:15:00
5:35 AM,-9999,-9999,N/A,30.10,0.2,Calm,Calm,-,N/A,Fog,Fog,0,2013-09-20 09:35:00
5:55 AM,55.4,55.4,100,30.10,0.8,Calm,Calm,-,N/A,,Mist,0,2013-09-20 09:55:00
6:16 AM,55.4,55.4,100,30.09,0.2,Calm,Calm,-,N/A,Fog,Fog,0,2013-09-20 10:16:00
6:37 AM,55.4,55.4,100,30.09,0.2,Calm,Calm,-,N/A,Fog,Fog,0,2013-09-20 10:37:00
6:55 AM,55.4,55.4,100,30.10,2.0,Calm,Calm,-,N/A,,Overcast,0,2013-09-20 10:55:00
7:36 AM,55.4,55.4,100,30.11,0.8,Calm,Calm,-,N/A,,Overcast,0,2013-09-20 11:36:00
7:55 AM,57.2,57.2,100,30.11,1.5,Calm,Calm,-,N/A,,Overcast,0,2013-09-20 11:55:00
8:16 AM,59.0,59.0,100,30.11,10.0,Calm,Calm,-,N/A,,Mostly Cloudy,0,2013-09-20 12:16:00
8:36 AM,60.8,60.8,100,30.11,10.0,Calm,Calm,-,N/A,,Mostly Cloudy,0,2013-09-20 12:36:00
8:56 AM,62.6,62.6,100,30.11,10.0,Calm,Calm,-,N/A,,Mostly Cloudy,0,2013-09-20 12:56:00
9:16 AM,64.4,64.4,100,30.11,7.0,Calm,Calm,-,N/A,,Overcast,0,2013-09-20 13:16:00
9:35 AM,64.4,64.4,100,30.10,10.0,Calm,Calm,-,N/A,,Scattered Clouds,0,2013-09-20 13:35:00
9:56 AM,68.0,68.0,100,30.10,10.0,Calm,Calm,-,N/A,,Clear,0,2013-09-20 13:56:00
10:15 AM,71.6,68.0,88,30.09,10.0,SSW,4.6,-,N/A,,Clear,200,2013-09-20 14:15:00
10:35 AM,73.4,66.2,78,30.09,10.0,WSW,3.5,-,N/A,,Clear,240,2013-09-20 14:35:00
10:55 AM,75.2,64.4,69,30.08,10.0,South,3.5,-,N/A,,Clear,190,2013-09-20 14:55:00
11:17 AM,75.2,64.4,69,30.09,10.0,South,5.8,-,N/A,,Mostly Cloudy,180,2013-09-20 15:17:00
11:35 AM,75.2,64.4,69,30.08,10.0,SW,6.9,-,N/A,,Overcast,220,2013-09-20 15:35:00
11:55 AM,78.8,64.4,61,30.08,10.0,SW,5.8,-,N/A,,Mostly Cloudy,230,2013-09-20 15:55:00
12:35 PM,80.6,64.4,58,30.06,10.0,South,6.9,-,N/A,,Mostly Cloudy,190,2013-09-20 16:35:00
12:55 PM,78.8,64.4,61,30.06,10.0,South,4.6,-,N/A,,Overcast,180,2013-09-20 16:55:00
1:15 PM,80.6,64.4,58,30.06,10.0,SW,5.8,16.1,N/A,,Overcast,230,2013-09-20 17:15:00
1:37 PM,80.6,64.4,58,30.05,10.0,SSW,6.9,-,N/A,,Mostly Cloudy,200,2013-09-20 17:37:00
1:55 PM,80.6,64.4,58,30.05,10.0,South,4.6,-,N/A,,Mostly Cloudy,190,2013-09-20 17:55:00
2:15 PM,80.6,64.4,58,30.05,10.0,South,6.9,-,N/A,,Overcast,180,2013-09-20 18:15:00
2:37 PM,80.6,66.2,61,30.04,10.0,SSW,5.8,-,N/A,,Mostly Cloudy,200,2013-09-20 18:37:00
2:55 PM,80.6,64.4,58,30.04,10.0,South,4.6,-,N/A,,Mostly Cloudy,170,2013-09-20 18:55:00
3:15 PM,82.4,66.2,58,30.02,10.0,South,5.8,-,N/A,,Mostly Cloudy,180,2013-09-20 19:15:00
3:35 PM,82.4,66.2,58,30.02,10.0,SSE,3.5,-,N/A,,Scattered Clouds,150,2013-09-20 19:35:00
3:55 PM,82.4,66.2,58,30.02,10.0,SSW,4.6,-,N/A,,Scattered Clouds,200,2013-09-20 19:55:00
4:15 PM,82.4,66.2,58,30.01,10.0,SSE,3.5,-,N/A,,Mostly Cloudy,160,2013-09-20 20:15:00
4:37 PM,82.4,66.2,58,30.01,10.0,SSE,4.6,-,N/A,,Scattered Clouds,160,2013-09-20 20:37:00
5:15 PM,82.4,66.2,58,29.99,10.0,South,4.6,-,N/A,,Clear,190,2013-09-20 21:15:00
5:37 PM,82.4,66.2,58,29.99,10.0,SSW,3.5,-,N/A,,Clear,200,2013-09-20 21:37:00
5:55 PM,80.6,66.2,61,29.99,10.0,SSW,4.6,-,N/A,,Scattered Clouds,200,2013-09-20 21:55:00
6:15 PM,78.8,66.2,65,29.98,10.0,SSW,3.5,-,N/A,,Scattered Clouds,200,2013-09-20 22:15:00
6:35 PM,77.0,66.2,69,29.98,10.0,Calm,Calm,-,N/A,,Scattered Clouds,0,2013-09-20 22:35:00
6:57 PM,73.4,71.6,94,29.98,10.0,Calm,Calm,-,N/A,,Scattered Clouds,0,2013-09-20 22:57:00
7:15 PM,71.6,71.6,100,29.98,10.0,Calm,Calm,-,N/A,,Mostly Cloudy,0,2013-09-20 23:15:00
7:37 PM,71.6,71.6,100,29.98,10.0,Calm,Calm,-,N/A,,Mostly Cloudy,0,2013-09-20 23:37:00
7:55 PM,69.8,69.8,100,29.98,10.0,Calm,Calm,-,N/A,,Scattered Clouds,0,2013-09-20 23:55:00
8:15 PM,71.6,71.6,100,29.98,10.0,Calm,Calm,-,N/A,,Mostly Cloudy,0,2013-09-21 00:15:00
8:37 PM,71.6,69.8,94,29.99,10.0,Calm,Calm,-,N/A,,Overcast,0,2013-09-21 00:37:00
8:57 PM,71.6,71.6,100,30.00,10.0,Calm,Calm,-,N/A,,Overcast,0,2013-09-21 00:57:00
9:15 PM,71.6,71.6,100,30.00,10.0,Calm,Calm,-,N/A,,Overcast,0,2013-09-21 01:15:00
9:39 PM,71.6,71.6,100,30.00,10.0,Calm,Calm,-,N/A,,Mostly Cloudy,0,2013-09-21 01:39:00
9:57 PM,71.6,71.6,100,30.00,10.0,Calm,Calm,-,N/A,,Overcast,0,2013-09-21 01:57:00
10:15 PM,69.8,69.8,100,29.99,7.0,Calm,Calm,-,N/A,,Mostly Cloudy,0,2013-09-21 02:15:00
10:35 PM,69.8,69.8,100,29.99,10.0,Calm,Calm,-,N/A,,Scattered Clouds,0,2013-09-21 02:35:00
10:55 PM,69.8,69.8,100,29.99,10.0,Calm,Calm,-,N/A,,Mostly Cloudy,0,2013-09-21 02:55:00
11:15 PM,71.6,71.6,100,29.99,10.0,Calm,Calm,-,N/A,,Overcast,0,2013-09-21 03:15:00
11:39 PM,71.6,71.6,100,29.98,10.0,SSE,3.5,-,N/A,,Mostly Cloudy,160,2013-09-21 03:39:00
11:55 PM,69.8,69.8,100,29.98,10.0,South,3.5,-,N/A,,Scattered Clouds,180,2013-09-21 03:55:00